Simultaneous Nadir Overpasses (SNOs) Predictions

Prediction of SNOs between GOES-16 and METOP-C Satellite Orbit:

Table of predicted SNOs for the next 14.0 days since TLE Epoch: 3/21/2020
Index Date Time (GOES-16) GOES-16 Lat,Lon METOP-C Lat,Lon Distance(km) Time Diff (sec)
1 03/21/2020 02:31:09 0.03, -75.16 -0.02, -75.26 12.22 80
2 03/23/2020 14:32:04 -0.03, -75.16 -0.12, -74.84 37.49 80
3 03/25/2020 02:48:24 0.03, -75.14 -0.90, -79.43 488.74 80
4 03/26/2020 02:30:25 0.03, -75.14 0.18, -74.43 80.13 80
5 03/27/2020 14:46:38 -0.03, -75.15 0.81, -79.00 438.20 80
6 03/28/2020 14:28:38 -0.03, -75.15 -0.28, -74.00 130.84 80
7 03/30/2020 02:44:59 0.04, -75.14 -0.76, -78.60 394.89 80
8 03/31/2020 02:27:00 0.05, -75.14 0.39, -73.61 174.16 80
9 04/01/2020 14:43:14 -0.05, -75.16 0.60, -78.18 343.82 80
10 04/02/2020 14:25:14 -0.05, -75.16 -0.49, -73.18 225.48 80




NCC Satellite Simultaneous Nadir Overpasses (SNOs) Prediction Service
